Location: Bazugues
(43.4465°N, 0.3432°E)
Time: 19:58:22
(UTC+00:00)

Nadezhda 3 Rocket - Pass Details

Date: 12 January 2026
Orbit: 956 x 998 km, 82.9° (Epoch: 13 February)

Event Time Altitude Azimuth Distance (km) Brightness Sun altitude
Rises 18:12:15 0° 162° (SSE) 3,625 7.0 -15.5°
Reaches altitude 10° 18:14:53 10° 155° (SSE) 2,681 6.2 -16.0°
Maximum altitude 18:20:30 39° 89° (E) 1,394 4.3 -17.0°
Drops below altitude 10° 18:26:08 10° 22° (NNE) 2,698 6.0 -18.0°
Enters shadow 18:27:25 - 18° (NNE) 3,153 6.4 -18.2°
